Location: Mountain View
(37.3861°N, 122.0839°W)
Time: 13:43:20
(UTC-07:00)

Tiangong - Pass Details

Date: 30 September 2021
Orbit: 382 x 385 km, 41.5° (Epoch: 18 October)

Event Time Altitude Azimuth Distance (km) Brightness Sun altitude
Exits shadow 05:26:33 46° 2° (N) 521 1.7 -19.9°
Drops below altitude 10° 05:29:25 10° 65° (ENE) 1,397 5.0 -19.4°
Sets 05:31:32 0° 71° (ENE) 2,250 6.6 -19.0°
